Theta_e
290 290 290 290 291 290 290 290 291 291 292 293 293 294 293 293 293 294 295 296 296 298
290 291 290 290 290 290 290 290 290 291 291 292 292 292 293 292 292 293 293 294 297 298
291 291 290 290 289 289 289 289 289 290 291 291 292 291 291 292 292 292 293 294 294 297
289 289 289 289 288 288 288 289 289 289 290 290 291 291 291 291 292 292 292 293 293 294
289 288 288 288 289 289 288 289 289 290 290 290 291 291 290 290 291 291 290 292 292 293
287 288 287 288 288 288 288 289 290 290 289 290 290 290 291 291 291 291 291 291 292 293
287 287 287 288 288 288 288 289 289 289 289 290 290 290 290 290 291 291 291 292 293 292
287 287 287 287 287 288 288 289 289 289 289 289 289 290 290 290 290 290 290 291 292 292
287 287 286 286 287 287 287 288 288 288 288 288 288 290 291 291 290 290 290 289 291 291
286 285 286 286 286 286 286 287 287 287 287 287 288 290 291 290 290 290 289 290 289 289
285 285 285 285 285 286 286 286 286 286 286 286 288 290 291 290 290 290 289 290 289 289
285 285 285 285 285 285 285 285 286 286 285 285 286 289 291 291 288 287 287 288 288 288
285 285 285 285 285 285 285 285 285 285 286 285 285 288 291 291 286 286 286 286 287 287
285 285 285 284 285 285 285 285 285 284 285 285 285 286 291 293 287 286 285 285 285 286
Wind_Speed
6 5 6 7 10 8 8 8 9 9 9 10 11 11 12 10 10 11 9 9 6 3
6 10 11 12 10 9 11 9 11 10 11 11 12 12 13 11 12 12 10 11 8 9
10 10 10 11 12 12 12 11 11 11 11 11 12 13 13 12 13 13 11 8 10 9
9 10 12 11 11 12 12 12 12 12 13 13 14 15 14 15 15 15 13 13 13 14
10 10 11 11 12 15 13 12 13 13 13 14 15 16 16 17 15 14 14 15 14 14
10 11 11 12 12 15 16 16 13 12 13 15 16 15 15 15 15 14 14 14 12 11
10 11 12 12 12 13 14 14 12 12 13 15 15 15 15 14 14 14 13 12 9 11
11 11 12 12 12 12 12 12 12 12 13 14 13 10 13 13 12 12 12 11 12 12
12 11 11 12 12 12 12 11 10 11 13 13 10 15 18 14 9 9 10 9 11 10
12 12 10 11 11 11 11 10 10 11 11 12 11 16 16 13 7 8 7 9 7 8
11 12 11 11 10 9 9 9 10 10 11 11 9 15 14 11 6 7 8 7 9 9
10 12 11 11 10 9 8 9 8 8 9 10 9 14 14 10 5 5 6 6 6 5
9 10 10 10 10 7 7 9 8 9 8 10 10 15 15 8 2 4 3 4 6 10
7 9 9 11 7 8 8 8 7 7 8 9 11 12 14 6 3 3 1 1 2 3
Wind_Direction
285 294 292 292 300 294 292 287 282 277 274 276 278 279 278 274 273 264 268 269 252 248
297 314 307 303 299 292 293 283 278 276 277 278 275 271 274 272 272 274 260 257 264 260
309 306 304 298 292 290 288 284 282 282 283 285 281 277 272 269 265 261 256 256 259 257
309 304 305 294 293 286 287 287 284 286 289 289 284 277 271 266 264 262 266 257 253 257
298 297 298 294 292 300 294 290 286 288 289 286 279 271 265 262 259 257 261 260 246 253
301 303 301 295 295 302 297 295 291 291 290 286 276 271 263 258 256 252 251 255 253 251
302 300 298 294 294 297 297 293 291 290 288 279 275 270 266 259 251 248 247 257 241 247
304 302 296 296 294 294 294 289 288 293 289 284 280 272 269 255 248 245 250 246 246 255
304 296 300 300 300 298 294 293 297 303 293 292 287 284 279 265 245 245 245 251 248 253
302 300 300 299 298 300 300 302 313 303 304 300 295 290 290 281 262 245 244 242 252 229
302 299 298 297 300 302 301 313 314 306 309 310 297 299 304 289 260 243 240 252 234 239
305 300 305 309 311 304 313 324 303 301 310 314 310 314 298 293 239 228 234 226 229 235
307 303 311 312 308 311 324 307 305 309 313 316 315 324 316 252 206 231 248 240 233 236
313 313 316 330 322 335 330 312 311 321 331 332 334 337 343 243 206 230 214 260 262 231